Terminal Aerodrome Forecast
Issued by NWS Mt. Holly, NJ

Home | Current Version | Previous Version | Text Only | Print | Product List | Glossary On
Versions: 1 2 3 4 5 6 7 8 9 10 11 12 13 14 15 16 17 18 19 20 21 22 23 24 25 26 27 28 29 30 31
000
FTUS41 KPHI 031140
TAFABE
TAF
KABE 031140Z 0312/0412 06004KT P6SM OVC008
      TEMPO 0312/0314 OVC012
     FM031400 06006KT P6SM SCT015 BKN025
     FM031600 09006KT P6SM SCT030 BKN045
     FM040900 07006KT P6SM OVC025=

USA.gov is the U.S. government's official web portal to all federal, state and local government web resources and services.